Simultaneous Nadir Overpasses (SNOs) Predictions

Prediction of SNOs between GOES-17 and METOP-A Satellite Orbit:

Table of predicted SNOs for the next 14.0 days since TLE Epoch: 4/24/2020
Index Date Time (GOES-17) GOES-17 Lat,Lon METOP-A Lat,Lon Distance(km) Time Diff (sec)
1 04/25/2020 17:45:04 0.03,-137.19 -0.48,-134.89 263.04 80
2 04/27/2020 06:04:04 -0.03,-137.17 -0.56,-139.51 266.80 80
3 04/28/2020 05:40:45 -0.03,-137.16 0.54,-134.53 299.39 80
4 04/29/2020 17:59:36 0.02,-137.15 0.49,-139.12 224.90 80
5 04/30/2020 17:41:36 0.02,-137.14 -0.62,-134.14 340.91 80
6 05/02/2020 06:00:38 -0.02,-137.10 -0.36,-138.78 190.24 80
7 05/03/2020 05:37:17 -0.02,-137.09 0.69,-133.79 375.28 80
8 05/04/2020 17:56:10 0.01,-137.07 0.28,-138.39 149.97 80
9 05/05/2020 17:38:09 0.01,-137.05 -0.77,-133.40 415.33 80
10 05/07/2020 05:57:09 -0.01,-137.00 -0.26,-138.02 116.66 80
11 05/08/2020 05:33:50 -0.01,-136.98 0.85,-133.04 448.13 80




NCC Satellite Simultaneous Nadir Overpasses (SNOs) Prediction Service
